Location: Hopewell Observatory
(38.8698°N, 77.6988°W)
Time: 19:14:58
(UTC-05:00)

COSMOS 2455 - Pass Details

Date: 26 May 2018
Orbit: 902 x 908 km, 67.1° (Epoch: 13 December)

Event Time Altitude Azimuth Distance (km) Brightness Sun altitude
Exits shadow 23:10:45 34° 92° (E) 1,451 3.6 -23.9°
Drops below altitude 10° 23:15:18 10° 45° (NE) 2,585 5.4 -24.3°
Sets 23:17:59 0° 37° (NE) 3,529 6.2 -24.6°
